FDX146 SBPS-SBPL

Flight info

Callsign FDX146
Flight time N/A
Altitude 31000
Route DAKEN DCT DORMU DCT EDMUP
Aircraft RJ1H/M-SDFGIRWY/LB1

Departure

Time 2026-04-28 21:59
Airport Porto Seguro International Airport (SBPS)

Arrival

Time N/A
Airport Senador Nilo Coelho Airport (SBPL)
Time Latitude Longitude Altitude Speed Heading
2026-04-28 21:21 -16.44099 -39.08234 181 ft 0 kts 165°
2026-04-28 21:44 -16.44098 -39.08234 159 ft 1 kts 166°
2026-04-28 21:45 -16.44089 -39.08237 159 ft 3 kts 157°
2026-04-28 21:45 -16.44078 -39.08239 159 ft 3 kts 176°
2026-04-28 21:45 -16.44060 -39.08236 159 ft 3 kts 213°
2026-04-28 21:45 -16.44047 -39.08221 159 ft 3 kts 246°
2026-04-28 21:46 -16.44042 -39.08206 159 ft 1 kts 254°
2026-04-28 21:46 -16.44041 -39.08201 159 ft 0 kts 254°
2026-04-28 21:53 -16.44042 -39.08206 159 ft 1 kts 254°
2026-04-28 21:54 -16.44046 -39.08218 159 ft 3 kts 254°
2026-04-28 21:54 -16.44054 -39.08247 159 ft 5 kts 254°
2026-04-28 21:54 -16.44048 -39.08286 159 ft 7 kts 329°
2026-04-28 21:54 -16.43995 -39.08302 159 ft 9 kts 345°
2026-04-28 21:55 -16.43930 -39.08328 158 ft 12 kts 307°
2026-04-28 21:55 -16.43939 -39.08417 158 ft 14 kts 254°
2026-04-28 21:55 -16.43966 -39.08516 159 ft 15 kts 254°
2026-04-28 21:55 -16.43995 -39.08624 159 ft 16 kts 254°
2026-04-28 21:56 -16.44025 -39.08739 159 ft 13 kts 259°
2026-04-28 21:56 -16.44047 -39.08821 160 ft 12 kts 252°
2026-04-28 21:56 -16.44071 -39.08909 160 ft 13 kts 255°
2026-04-28 21:56 -16.44070 -39.08984 160 ft 6 kts 176°
2026-04-28 21:57 -16.44080 -39.08939 160 ft 8 kts 75°
2026-04-28 21:57 -16.44073 -39.08913 160 ft 0 kts 74°
2026-04-28 21:57 -16.44067 -39.08892 160 ft 12 kts 74°
2026-04-28 21:58 -16.43991 -39.08609 159 ft 74 kts 74°
2026-04-28 21:58 -16.43800 -39.07897 160 ft 129 kts 75°
2026-04-28 21:58 -16.43557 -39.06982 334 ft 122 kts 75°
2026-04-28 21:58 -16.43372 -39.06097 327 ft 130 kts 83°
2026-04-28 21:59 -16.43264 -39.05108 699 ft 139 kts 85°
2026-04-28 21:59 -16.43051 -39.04034 890 ft 170 kts 75°
2026-04-28 21:59 -16.42684 -39.02774 1072 ft 188 kts 73°
2026-04-28 22:00 -16.41639 -39.00312 1703 ft 193 kts 40°
2026-04-28 22:00 -16.40360 -38.99909 1948 ft 198 kts
2026-04-28 22:00 -16.38975 -38.99919 2280 ft 199 kts
2026-04-28 22:00 -16.37586 -38.99936 2639 ft 200 kts
2026-04-28 22:01 -16.36182 -38.99944 2674 ft 203 kts
2026-04-28 22:01 -16.34711 -38.99923 2577 ft 220 kts
2026-04-28 22:01 -16.33117 -38.99851 2501 ft 236 kts
2026-04-28 22:01 -16.31422 -38.99739 2615 ft 252 kts
2026-04-28 22:02 -16.29628 -38.99588 2901 ft 262 kts
2026-04-28 22:02 -16.27800 -38.99413 3361 ft 265 kts
2026-04-28 22:02 -16.25960 -38.99219 3818 ft 266 kts
2026-04-28 22:02 -16.24110 -38.99018 4264 ft 269 kts
2026-04-28 22:03 -16.22267 -38.98801 4712 ft 270 kts
2026-04-28 22:03 -16.20392 -38.98581 5147 ft 272 kts
2026-04-28 22:03 -16.18502 -38.98369 5577 ft 273 kts
2026-04-28 22:03 -16.16606 -38.98157 6007 ft 275 kts
2026-04-28 22:04 -16.14695 -38.97943 6431 ft 277 kts
2026-04-28 22:04 -16.12777 -38.97713 6815 ft 278 kts
2026-04-28 22:04 -16.10843 -38.97482 7204 ft 279 kts
2026-04-28 22:04 -16.08905 -38.97261 7595 ft 281 kts
2026-04-28 22:05 -16.06959 -38.97045 7961 ft 282 kts
2026-04-28 22:05 -16.05001 -38.96820 8324 ft 284 kts
2026-04-28 22:05 -16.03025 -38.96623 8684 ft 286 kts
2026-04-28 22:05 -16.01056 -38.96513 9022 ft 288 kts
2026-04-28 22:06 -15.99043 -38.96422 9370 ft 289 kts
2026-04-28 22:06 -15.97021 -38.96339 9714 ft 291 kts
2026-04-28 22:06 -15.94988 -38.96259 10026 ft 293 kts
2026-04-28 22:06 -15.92948 -38.96181 10317 ft 295 kts
2026-04-28 22:07 -15.90849 -38.96100 10323 ft 308 kts
2026-04-28 22:07 -15.88687 -38.96011 10336 ft 319 kts
2026-04-28 22:07 -15.86435 -38.95915 10372 ft 329 kts
2026-04-28 22:07 -15.84141 -38.95812 10577 ft 331 kts
2026-04-28 22:08 -15.81836 -38.95695 10807 ft 332 kts
2026-04-28 22:08 -15.80303 -38.95614 10970 ft 333 kts
2026-04-28 22:08 -15.77189 -38.95467 11284 ft 335 kts
2026-04-28 22:08 -15.75648 -38.95395 11442 ft 336 kts
2026-04-28 22:09 -15.73301 -38.95288 11669 ft 337 kts
2026-04-28 22:09 -15.70956 -38.95179 11889 ft 339 kts
2026-04-28 22:09 -15.68597 -38.95069 12121 ft 340 kts
2026-04-28 22:09 -15.66228 -38.94956 12337 ft 341 kts
2026-04-28 22:10 -15.63080 -38.94805 12619 ft 343 kts
2026-04-28 22:10 -15.61467 -38.94728 12781 ft 344 kts
2026-04-28 22:10 -15.59098 -38.94613 12982 ft 345 kts
2026-04-28 22:10 -15.56695 -38.94497 13210 ft 346 kts
2026-04-28 22:11 -15.54279 -38.94377 13423 ft 347 kts
2026-04-28 22:11 -15.51853 -38.94258 13640 ft 349 kts
2026-04-28 22:11 -15.49423 -38.94136 13850 ft 350 kts
2026-04-28 22:11 -15.46991 -38.94016 14040 ft 351 kts
2026-04-28 22:12 -15.44548 -38.93894 14246 ft 351 kts
2026-04-28 22:12 -15.41307 -38.93732 14496 ft 353 kts
2026-04-28 22:12 -15.39649 -38.93649 14627 ft 353 kts
2026-04-28 22:12 -15.37192 -38.93527 14814 ft 354 kts
2026-04-28 22:13 -15.34720 -38.93414 15011 ft 355 kts
2026-04-28 22:13 -15.32285 -38.93295 15203 ft 356 kts
2026-04-28 22:13 -15.29805 -38.93182 15399 ft 357 kts
2026-04-28 22:13 -15.27317 -38.93074 15590 ft 358 kts
2026-04-28 22:14 -15.24823 -38.92953 15787 ft 359 kts
2026-04-28 22:14 -15.22327 -38.92829 15977 ft 360 kts
2026-04-28 22:14 -15.19819 -38.92707 16170 ft 360 kts
2026-04-28 22:14 -15.17304 -38.92769 16349 ft 363 kts 354°
2026-04-28 22:15 -15.14818 -38.93259 16528 ft 365 kts 348°
2026-04-28 22:15 -15.12379 -38.93913 16708 ft 367 kts 346°
2026-04-28 22:15 -15.09920 -38.94652 16889 ft 368 kts 345°
2026-04-28 22:15 -15.07466 -38.95420 17072 ft 369 kts 345°
2026-04-28 22:16 -15.05008 -38.96205 17259 ft 370 kts 345°
2026-04-28 22:16 -15.02539 -38.97001 17448 ft 371 kts 345°
2026-04-28 22:16 -15.00069 -38.97780 17640 ft 372 kts 345°
2026-04-28 22:16 -14.97585 -38.98551 17825 ft 373 kts 345°
2026-04-28 22:17 -14.95096 -38.99321 18002 ft 374 kts 346°
2026-04-28 22:17 -14.92601 -39.00092 18195 ft 375 kts 345°
2026-04-28 22:17 -14.90099 -39.00864 18352 ft 376 kts 346°
2026-04-28 22:17 -14.87581 -39.01619 18524 ft 376 kts 346°
2026-04-28 22:18 -14.85062 -39.02375 18673 ft 377 kts 346°
2026-04-28 22:18 -14.82538 -39.03150 18838 ft 378 kts 346°
2026-04-28 22:18 -14.80044 -39.03909 18997 ft 379 kts 346°
2026-04-28 22:18 -14.77509 -39.04677 19159 ft 380 kts 346°
2026-04-28 22:19 -14.74966 -39.05460 19318 ft 381 kts 346°
2026-04-28 22:19 -14.72416 -39.06225 19495 ft 382 kts 346°
2026-04-28 22:19 -14.69857 -39.06998 19655 ft 383 kts 346°
2026-04-28 22:19 -14.67295 -39.07785 19829 ft 384 kts 346°
2026-04-28 22:20 -14.64728 -39.08555 19989 ft 385 kts 346°
2026-04-28 22:20 -14.62189 -39.09330 20157 ft 386 kts 346°
2026-04-28 22:20 -14.59611 -39.10117 20327 ft 387 kts 346°
2026-04-28 22:20 -14.57024 -39.10891 20494 ft 388 kts 346°
2026-04-28 22:21 -14.54427 -39.11678 20661 ft 389 kts 346°
2026-04-28 22:21 -14.51826 -39.12476 20837 ft 390 kts 346°
2026-04-28 22:21 -14.49216 -39.13264 21007 ft 390 kts 346°
2026-04-28 22:21 -14.46605 -39.14049 21177 ft 391 kts 346°
2026-04-28 22:22 -14.43984 -39.14839 21348 ft 393 kts 346°
2026-04-28 22:22 -14.41385 -39.15638 21512 ft 394 kts 346°
2026-04-28 22:22 -14.38746 -39.16439 21692 ft 395 kts 346°
2026-04-28 22:22 -14.36103 -39.17237 21871 ft 396 kts 347°
2026-04-28 22:23 -14.33455 -39.18039 22041 ft 397 kts 347°
2026-04-28 22:23 -14.30800 -39.18843 22213 ft 398 kts 347°
2026-04-28 22:23 -14.28171 -39.19638 22379 ft 399 kts 347°
2026-04-28 22:23 -14.25500 -39.20449 22561 ft 400 kts 347°
2026-04-28 22:24 -14.22823 -39.21263 22731 ft 401 kts 347°
2026-04-28 22:24 -14.20140 -39.22079 22904 ft 403 kts 347°
2026-04-28 22:24 -14.17450 -39.22900 23083 ft 404 kts 347°
2026-04-28 22:24 -14.14751 -39.23724 23246 ft 405 kts 347°
2026-04-28 22:25 -14.12044 -39.24551 23416 ft 406 kts 347°